星链-35858(STARLINK-35858)

导读

STARLINK-35858是美国于2025年12月31日发射的星链低轨互联网卫星,隶属于SpaceX公司星链卫星互联网项目,该项目旨在为全球范围提供高速低延迟的宽带网络服务,这颗卫星将在预定轨道运行,承担信号转发覆盖任务,进一步扩充星链星座组网规模,提升全球网络覆盖能力与服务稳定性。

Basic Information
目录编号:
66833
目录名称:
STARLINK-35858
国际标识:
2025-280N
轨道中心:
EARTH
卫星名称:
星链-35858
卫星全名:
星链-35858(STARLINK-35858)
卫星状态:
在轨 (已飞行193 天)
发射日期:
2025-12-02 UTC
国别 :
美国 (US)
星等 :
--
Orbit Information
数据来源 国际轨道数据 AOE轨道数据
星历时间 2026-06-13T04:50:16+0800
13小时前
查看轨道信息
2026-06-11T04:00:00+0800
2天前
查看轨道信息
半长轴 6950.174km 6950.174km
偏心率 0.0002686 0.0001214
轨道倾角 70.002° 70.000°
近地点辐角 267.531° 279.815°
升交点赤经 94.443° 99.572°
平近点角 92.554° 267.123°
近地点 570.17km 571.193km
远地点 573.904km 572.881km
周期 96.107分钟 96.107分钟
每日圈数 14.983364 14.983363
Detailed Information
固有亮度:
5
最大亮度:
2.5
卫星平台:
Starlink V1.0
覆盖范围:
全球
运营商:
太空探索技术公司
运营商所在国:
美国
制造商(研发单位):
太空探索技术公司
制造商所在国:
美国
使用方式:
暂无
Satellite Introduction
Starlink 计划是 SpaceX 推出的全球卫星互联网项目,通过发射低轨道卫星,为全球尤其是偏远地区提供高速、低延迟的互联网服务。自 2019 年起,Starlink 已部署数千颗卫星,旨在缩小全球数字鸿沟,推动互联网普及。该项目还为军事、航空等行业提供通信支持,带来广泛经济效益。
2D Orbit Map
3D Orbit Map
Orbit Altitude Analysis Chart
Orbit Inclination Analysis Chart
Orbit Comprehensive Analysis Chart
View Comprehensive Chart